TimeEST,TemperatureF,Dew PointF,Humidity,Sea Level PressureIn,VisibilityMPH,Wind Direction,Wind SpeedMPH,Gust SpeedMPH,PrecipitationIn,Events,Conditions,WindDirDegrees,DateUTC
12:02 AM,33.8,33.8,100,30.02,3.0,Calm,Calm,-,N/A,,Overcast,0,2013-01-29 05:02:00
12:16 AM,33.8,33.8,100,30.01,2.5,Calm,Calm,-,N/A,,Overcast,0,2013-01-29 05:16:00
12:32 AM,33.8,33.8,100,30.00,1.2,South,3.5,-,N/A,,Overcast,170,2013-01-29 05:32:00
12:46 AM,33.8,33.8,100,30.00,2.5,Calm,Calm,-,N/A,,Overcast,0,2013-01-29 05:46:00
12:53 AM,34.0,33.1,96,30.01,2.0,Calm,Calm,-,N/A,,Overcast,0,2013-01-29 05:53:00
1:00 AM,33.8,33.8,100,30.00,1.8,Calm,Calm,-,N/A,,Overcast,0,2013-01-29 06:00:00
1:53 AM,34.0,33.1,96,30.03,1.5,Calm,Calm,-,N/A,,Overcast,0,2013-01-29 06:53:00
2:35 AM,35.6,33.8,93,30.01,2.5,Calm,Calm,-,N/A,,Overcast,0,2013-01-29 07:35:00
2:53 AM,35.1,34.0,96,30.02,2.5,Calm,Calm,-,N/A,,Overcast,0,2013-01-29 07:53:00
3:03 AM,35.6,33.8,93,30.01,3.0,Calm,Calm,-,N/A,,Overcast,0,2013-01-29 08:03:00
3:13 AM,35.6,35.6,100,30.01,2.0,Calm,Calm,-,N/A,,Overcast,0,2013-01-29 08:13:00
3:31 AM,35.6,35.6,100,30.01,1.8,Calm,Calm,-,N/A,,Overcast,0,2013-01-29 08:31:00
3:53 AM,35.1,35.1,100,30.02,1.2,Calm,Calm,-,N/A,,Overcast,0,2013-01-29 08:53:00
4:50 AM,35.6,33.8,93,30.03,2.0,Calm,Calm,-,N/A,,Overcast,0,2013-01-29 09:50:00
4:53 AM,35.1,34.0,96,30.04,2.0,Calm,Calm,-,N/A,,Overcast,0,2013-01-29 09:53:00
5:11 AM,35.6,35.6,100,30.04,1.8,Calm,Calm,-,N/A,,Overcast,0,2013-01-29 10:11:00
5:37 AM,35.6,33.8,93,30.05,2.5,NNE,3.5,-,N/A,,Overcast,30,2013-01-29 10:37:00
5:50 AM,33.8,33.8,100,30.06,1.8,Calm,Calm,-,N/A,,Overcast,0,2013-01-29 10:50:00
5:53 AM,35.1,34.0,96,30.07,1.8,Calm,Calm,-,N/A,,Overcast,0,2013-01-29 10:53:00
6:53 AM,35.1,34.0,96,30.09,1.5,Calm,Calm,-,N/A,,Overcast,0,2013-01-29 11:53:00
7:35 AM,35.6,33.8,93,30.10,0.8,Calm,Calm,-,N/A,,Overcast,0,2013-01-29 12:35:00
7:46 AM,35.6,33.8,93,30.09,1.0,Calm,Calm,-,N/A,,Overcast,0,2013-01-29 12:46:00
7:53 AM,36.0,34.0,93,30.11,1.2,Calm,Calm,-,N/A,,Overcast,0,2013-01-29 12:53:00
8:45 AM,37.4,35.6,93,30.10,2.5,Calm,Calm,-,N/A,,Overcast,0,2013-01-29 13:45:00
8:53 AM,37.9,36.0,93,30.12,3.0,Calm,Calm,-,N/A,,Overcast,0,2013-01-29 13:53:00
9:53 AM,44.1,39.9,85,30.13,4.0,Calm,Calm,-,N/A,,Overcast,0,2013-01-29 14:53:00
10:53 AM,46.9,43.0,86,30.12,5.0,Calm,Calm,-,N/A,,Overcast,0,2013-01-29 15:53:00
11:53 AM,51.1,43.0,74,30.10,10.0,Calm,Calm,-,N/A,,Partly Cloudy,0,2013-01-29 16:53:00
12:53 PM,52.0,41.0,66,30.09,10.0,Calm,Calm,-,N/A,,Overcast,0,2013-01-29 17:53:00
1:53 PM,52.0,42.1,69,30.07,10.0,SSE,4.6,-,N/A,,Overcast,160,2013-01-29 18:53:00
2:50 PM,51.8,42.8,71,30.06,10.0,South,4.6,-,N/A,,Overcast,180,2013-01-29 19:50:00
2:53 PM,52.0,43.0,71,30.06,10.0,South,6.9,-,N/A,,Overcast,180,2013-01-29 19:53:00
3:53 PM,48.9,41.0,74,30.08,7.0,SE,5.8,-,N/A,,Overcast,130,2013-01-29 20:53:00
4:53 PM,46.0,39.9,79,30.08,5.0,Variable,3.5,-,N/A,,Haze,0,2013-01-29 21:53:00
5:53 PM,45.0,39.9,82,30.09,6.0,Variable,4.6,-,N/A,,Haze,0,2013-01-29 22:53:00
6:53 PM,43.0,39.9,89,30.11,5.0,ESE,4.6,-,0.00,Rain,Light Rain,110,2013-01-29 23:53:00
7:48 PM,42.8,41.0,93,30.09,4.0,Calm,Calm,-,0.00,,Overcast,0,2013-01-30 00:48:00
7:53 PM,43.0,41.0,93,30.11,4.0,Calm,Calm,-,0.00,,Overcast,0,2013-01-30 00:53:00
8:53 PM,42.1,39.9,92,30.10,3.0,Calm,Calm,-,N/A,,Overcast,0,2013-01-30 01:53:00
9:31 PM,42.8,41.0,93,30.08,3.0,Calm,Calm,-,N/A,,Overcast,0,2013-01-30 02:31:00
9:53 PM,42.1,41.0,96,30.09,3.0,Calm,Calm,-,N/A,,Overcast,0,2013-01-30 02:53:00
10:15 PM,42.8,41.0,93,30.07,3.0,Calm,Calm,-,N/A,,Overcast,0,2013-01-30 03:15:00
10:53 PM,41.0,39.9,96,30.07,2.5,Calm,Calm,-,N/A,,Overcast,0,2013-01-30 03:53:00
11:27 PM,41.0,39.2,93,30.06,3.0,Calm,Calm,-,N/A,,Overcast,0,2013-01-30 04:27:00
11:35 PM,41.0,39.2,93,30.06,2.5,Calm,Calm,-,N/A,,Overcast,0,2013-01-30 04:35:00
11:46 PM,41.0,39.2,93,30.06,2.0,Calm,Calm,-,N/A,,Overcast,0,2013-01-30 04:46:00
11:53 PM,39.9,39.9,100,30.06,1.8,Calm,Calm,-,N/A,,Overcast,0,2013-01-30 04:53:00